This is the latest recevied weather packets stored in our database for station/object KC3JUG-13. If no packets are shown the sender has not sent any weather packets the latest 1 day(s).
| Time | Temp. | Humidity | Pressure | Rain* | Wind** | Luminosity | Snow |
|---|---|---|---|---|---|---|---|
| 1778014238 | 25.56° C | 43% | 1010 hPa | 0 mm | 1.79 m/s, 198° | - | - |
| 1778013458 | 26.11° C | 43% | 1009.9 hPa | 0 mm | 1.79 m/s, 238° | - | - |
| 1778012678 | 26.11° C | 42% | 1010 hPa | 0 mm | 2.24 m/s, 238° | - | - |
| 1778011898 | 26.11° C | 41% | 1010.1 hPa | 0 mm | 1.79 m/s, 254° | - | - |
| 1778011118 | 26.11° C | 42% | 1010.3 hPa | 0 mm | 1.79 m/s, 202° | - | - |
| 1778010338 | 26.11° C | 43% | 1010.3 hPa | 0 mm | 1.79 m/s, 249° | - | - |
| 1778009558 | 26.11° C | 45% | 1010.3 hPa | 0 mm | 1.79 m/s, 183° | - | - |
| 1778008778 | 25.56° C | 43% | 1010.4 hPa | 0 mm | 2.24 m/s, 188° | - | - |
| 1778007998 | 25.56° C | 45% | 1010.6 hPa | 0 mm | 2.24 m/s, 227° | - | - |
| 1778007218 | 25.56° C | 47% | 1010.9 hPa | 0 mm | 1.79 m/s, 272° | - | - |
| 1778006438 | 25.56° C | 48% | 1011 hPa | 0 mm | 1.79 m/s, 208° | - | - |
| 1778005658 | 25.56° C | 45% | 1011.1 hPa | 0 mm | 2.68 m/s, 234° | - | - |
| 1778004878 | 25.56° C | 48% | 1010.9 hPa | 0 mm | 1.79 m/s, 267° | - | - |
| 1778004098 | 25° C | 51% | 1011.1 hPa | 0 mm | 1.79 m/s, 229° | - | - |
| 1778003318 | 25° C | 52% | 1011.2 hPa | 0 mm | 1.79 m/s, 205° | - | - |
| 1778002538 | 25° C | 50% | 1011.2 hPa | 0 mm | 1.34 m/s, 253° | - | - |
| 1778001758 | 25° C | 51% | 1011.4 hPa | 0 mm | 1.79 m/s, 189° | - | - |
| 1778000978 | 25° C | 50% | 1011.6 hPa | 0 mm | 1.79 m/s, 199° | - | - |
| 1778000198 | 25° C | 48% | 1011.5 hPa | 0 mm | 1.34 m/s, 266° | - | - |
| 1777999418 | 25° C | 46% | 1011.8 hPa | 0 mm | 2.24 m/s, 209° | - | - |
| 1777998638 | 24.44° C | 48% | 1011.9 hPa | 0 mm | 1.79 m/s, 224° | - | - |
| 1777997858 | 24.44° C | 49% | 1012 hPa | 0 mm | 1.79 m/s, 197° | - | - |
| 1777997078 | 24.44° C | 51% | 1012.2 hPa | 0 mm | 1.79 m/s, 235° | - | - |
| 1777996298 | 23.89° C | 51% | 1012.2 hPa | 0 mm | 2.24 m/s, 257° | - | - |
| 1777995518 | 23.89° C | 51% | 1012.2 hPa | 0 mm | 1.79 m/s, 243° | - | - |
* Rain latest hour (hover to see other rain measurements)
** Current wind speed in m/s (hover to see current wind gust speed)